CW9274 Weather Reports


time (UTC)temp
F
wind
direction
speed
knots
gust
knots
rain 1hr
in
rain 24hr
in
rain mn
in
humidity
%
barometer
mb
20260503051903 50 279 2.6 5.2 0.00 0.00 0.00 58 1010.6
20260503051403 50 237 1.7 2.6 0.00 0.00 0.00 62 1010.6
20260503050903 51 230 1.7 2.6 0.00 0.00 0.00 63 1010.7
20260503045403 52 207 1.7 2.6 0.00 0.00 0.00 63 1010.7
20260503044903 52 196 0.9 1.7 0.00 0.00 0.00 62 1010.6
20260503043903 52 196 0.9 1.7 0.00 0.00 0.00 62 1010.6
20260503043403 52 196 0.9 1.7 0.00 0.00 0.00 63 1010.6
20260503042903 52 196 0.9 1.7 0.00 0.00 0.00 62 1010.6
20260503042405 52 196 0.9 1.7 0.00 0.00 0.00 61 1010.6
20260503041403 52 196 0.9 2.6 0.00 0.00 0.00 61 1010.5
20260503040903 53 196 0.9 2.6 0.00 0.00 0.00 60 1010.5
20260503035903 53 195 1.7 2.6 0.00 0.00 0.00 59 1010.5
20260503035403 53 195 0.9 2.6 0.00 0.00 0.00 59 1010.5
20260503034903 53 195 0.0 1.7 0.00 0.00 0.00 59 1010.6
20260503034403 53 195 1.7 2.6 0.00 0.00 0.00 59 1010.6
20260503033903 54 195 2.6 4.3 0.00 0.00 0.00 58 1010.5
20260503033403 54 196 2.6 4.3 0.00 0.00 0.00 58 1010.4
20260503032904 54 218 2.6 4.3 0.00 0.00 0.00 58 1010.5
20260503032403 54 0 2.6 4.3 0.00 0.00 0.00 57 1010.4
20260503031404 55 0 5.2 8.7 0.00 0.00 0.00 55 1010.2
20260503030904 55 0 5.2 8.7 0.00 0.00 0.00 55 1010.2
20260503030404 56 0 6.1 10.4 0.00 0.00 0.00 54 1010.2
20260503025404 56 0 3.5 7.0 0.00 0.00 0.00 54 1010.1
20260503024903 56 0 5.2 7.8 0.00 0.00 0.00 53 1010.0
20260503024404 57 0 5.2 7.0 0.00 0.00 0.00 53 1010.0
20260503023904 57 0 5.2 10.4 0.00 0.00 0.00 52 1010.1
20260503023403 58 0 4.3 7.8 0.00 0.00 0.00 51 1010.0
20260503022403 59 0 6.1 10.4 0.00 0.00 0.00 49 1010.0
20260503021904 59 0 5.2 8.7 0.00 0.00 0.00 48 1010.0
20260503020904 60 0 5.2 10.4 0.00 0.00 0.00 47 1010.1
20260503015904 60 0 6.1 10.4 0.00 0.00 0.00 46 1010.1
20260503014904 62 13 5.2 7.8 0.00 0.00 0.00 44 1010.2
20260503014403 62 161 5.2 8.7 0.00 0.00 0.00 44 1010.3
20260503013904 62 158 5.2 8.7 0.00 0.00 0.00 44 1010.3
20260503013403 62 158 5.2 10.4 0.00 0.00 0.00 44 1010.3
20260503012904 62 92 6.1 10.4 0.00 0.00 0.00 42 1010.4
20260503012403 63 168 5.2 8.7 0.00 0.00 0.00 42 1010.4
20260503011904 63 159 5.2 8.7 0.00 0.00 0.00 42 1010.4
20260503011404 63 150 3.5 7.8 0.00 0.00 0.00 41 1010.4
20260503010904 64 139 4.3 10.4 0.00 0.00 0.00 40 1010.3
20260503010404 64 158 6.1 10.4 0.00 0.00 0.00 40 1010.4
20260503005404 64 163 3.5 6.1 0.00 0.00 0.00 39 1010.5
20260503004904 65 164 6.1 8.7 0.00 0.00 0.00 37 1010.6
20260503004403 65 136 2.6 6.1 0.00 0.00 0.00 37 1010.6
20260503003904 65 160 2.6 6.1 0.00 0.00 0.00 38 1010.7
20260503002404 65 141 3.5 7.8 0.00 0.00 0.00 37 1010.7
20260503001903 65 164 6.1 12.2 0.00 0.00 0.00 38 1010.7
20260503000904 66 129 4.3 6.1 0.00 0.00 0.00 37 1010.7
20260503000404 66 159 5.2 10.4 0.00 0.00 0.00 37 1010.8
20260502235904 65 124 2.6 6.1 0.00 0.00 0.00 37 1010.9
20260502235403 65 169 2.6 7.8 0.00 0.00 0.00 36 1010.9
20260502234404 66 129 4.3 7.8 0.00 0.00 0.00 37 1011.0
20260502233904 66 150 3.5 7.0 0.00 0.00 0.00 38 1011.1
20260502232903 65 152 4.3 8.7 0.00 0.00 0.00 35 1011.1
20260502231904 65 151 5.2 7.0 0.00 0.00 0.00 37 1011.3
20260502231404 65 142 2.6 6.1 0.00 0.00 0.00 37 1011.3
20260502230905 65 54 2.6 12.2 0.00 0.00 0.00 37 1011.4
20260502225904 65 119 2.6 7.0 0.00 0.00 0.00 37 1011.6
20260502225404 65 46 2.6 7.0 0.00 0.00 0.00 38 1011.7
20260502224904 64 145 2.6 7.8 0.00 0.00 0.00 40 1011.7
20260502224404 64 127 2.6 7.8 0.00 0.00 0.00 39 1011.8
20260502223904 65 177 4.3 8.7 0.00 0.00 0.00 37 1011.9
20260502223404 65 190 2.6 7.8 0.00 0.00 0.00 37 1012.0
20260502222904 65 158 4.3 8.7 0.00 0.00 0.00 40 1012.0
20260502222404 65 169 3.5 8.7 0.00 0.00 0.00 39 1012.1
20260502221904 64 178 4.3 10.4 0.00 0.00 0.00 39 1012.2
20260502221405 64 30 0.9 5.2 0.00 0.00 0.00 41 1012.2
20260502215900 63 188 4.3 7.8 0.00 0.00 0.00 39 1012.5
20260502215400 63 211 4.3 8.7 0.00 0.00 0.00 39 1012.5
20260502213901 63 178 5.2 10.4 0.00 0.00 0.00 41 1012.7
20260502213400 63 177 4.3 10.4 0.00 0.00 0.00 41 1012.7
20260502212900 63 173 5.2 10.4 0.00 0.00 0.00 42 1012.8
20260502212400 63 181 4.3 10.4 0.00 0.00 0.00 41 1013.0
20260502211401 62 192 4.3 7.0 0.00 0.00 0.00 43 1013.2
20260502210901 61 129 5.2 10.4 0.00 0.00 0.00 45 1013.3
20260502210401 61 186 7.0 13.0 0.00 0.00 0.00 43 1013.4
20260502205900 62 124 4.3 10.4 0.00 0.00 0.00 41 1013.5
20260502205401 62 111 4.3 8.7 0.00 0.00 0.00 43 1013.5
20260502204900 62 166 4.3 8.7 0.00 0.00 0.00 42 1013.5
20260502204400 62 188 6.1 10.4 0.00 0.00 0.00 42 1013.6
20260502203901 62 107 4.3 10.4 0.00 0.00 0.00 43 1013.6
20260502203400 61 161 5.2 7.8 0.00 0.00 0.00 44 1013.7
20260502202901 61 157 4.3 7.0 0.00 0.00 0.00 43 1013.8
20260502202400 61 153 6.1 10.4 0.00 0.00 0.00 44 1013.8
20260502201900 61 129 5.2 10.4 0.00 0.00 0.00 43 1014.0
20260502200901 61 112 2.6 7.8 0.00 0.00 0.00 45 1014.0
20260502195401 61 108 5.2 12.2 0.00 0.00 0.00 45 1014.3
20260502194400 60 141 1.7 13.0 0.00 0.00 0.00 45 1014.4
20260502193902 60 147 3.5 10.4 0.00 0.00 0.00 46 1014.5
20260502193400 60 0 4.3 10.4 0.00 0.00 0.00 46 1014.5
20260502192901 60 13 3.5 7.8 0.00 0.00 0.00 45 1014.5
20260502192401 60 2 4.3 10.4 0.00 0.00 0.00 48 1014.6
20260502191901 60 28 2.6 10.4 0.00 0.00 0.00 45 1014.7
20260502191401 60 0 4.3 8.7 0.00 0.00 0.00 48 1014.7
20260502190401 59 0 4.3 10.4 0.00 0.00 0.00 47 1014.8
20260502185901 59 3 3.5 7.8 0.00 0.00 0.00 48 1014.9
20260502185401 59 33 4.3 7.0 0.00 0.00 0.00 47 1015.1
20260502184900 59 6 6.1 13.0 0.00 0.00 0.00 47 1015.0
20260502184401 59 5 3.5 8.7 0.00 0.00 0.00 46 1015.2
20260502183901 58 7 4.3 10.4 0.00 0.00 0.00 46 1015.2
20260502183400 59 0 4.3 8.7 0.00 0.00 0.00 47 1015.2
20260502182901 58 71 2.6 7.8 0.00 0.00 0.00 48 1015.2
20260502182400 58 100 1.7 7.0 0.00 0.00 0.00 48 1015.3
20260502181901 58 94 6.1 10.4 0.00 0.00 0.00 47 1015.3
20260502181400 58 96 1.7 7.8 0.00 0.00 0.00 48 1015.4
20260502180901 58 0 2.6 10.4 0.00 0.00 0.00 50 1015.5
20260502180402 58 3 1.7 7.0 0.00 0.00 0.00 48 1015.5
20260502170401 55 0 5.2 8.7 0.00 0.00 0.00 54 1016.1
20260502163901 53 0 2.6 4.3 0.00 0.00 0.00 55 1016.4
20260502163402 52 0 1.7 4.3 0.00 0.00 0.00 56 1016.4
20260502162901 52 0 1.7 4.3 0.00 0.00 0.00 56 1016.4
20260502162401 52 0 1.7 2.6 0.00 0.00 0.00 57 1016.4
20260502161901 52 0 0.9 2.6 0.00 0.00 0.00 58 1016.4
20260502161401 51 0 1.7 2.6 0.00 0.00 0.00 58 1016.5
20260502160901 51 0 1.7 2.6 0.00 0.00 0.00 57 1016.5
20260502151901 50 3 2.6 4.3 0.00 0.00 0.00 60 1016.5
20260502151402 50 0 1.7 2.6 0.00 0.00 0.00 64 1016.5
20260502150901 49 0 1.7 2.6 0.00 0.00 0.00 65 1016.6
20260502150402 49 0 1.7 2.6 0.00 0.00 0.00 65 1016.6
20260502130402 47 0 0.0 1.7 0.00 0.00 0.00 66 1016.4
20260502123401 47 0 2.6 4.3 0.00 0.00 0.00 66 1016.2
20260502122902 47 0 2.6 4.3 0.00 0.00 0.00 65 1016.1
20260502122402 47 0 3.5 7.0 0.00 0.00 0.00 66 1016.2
20260502121902 47 0 2.6 5.2 0.00 0.00 0.00 66 1016.1
20260502120902 47 0 2.6 5.2 0.00 0.00 0.00 65 1016.0
20260502115402 47 0 2.6 5.2 0.00 0.00 0.00 65 1016.0
20260502114902 48 0 3.5 7.0 0.00 0.00 0.00 64 1016.0
20260502113402 48 0 3.5 7.8 0.00 0.00 0.00 63 1016.0
20260502111902 49 0 2.6 7.0 0.00 0.00 0.00 63 1016.1
20260502111401 49 0 4.3 7.0 0.00 0.00 0.00 64 1016.0
20260502110902 49 0 3.5 5.2 0.00 0.00 0.00 64 1016.0
20260502110402 49 0 2.6 7.0 0.00 0.00 0.00 63 1016.0
20260502105901 49 0 2.6 7.0 0.00 0.00 0.00 63 1016.0
20260502104902 49 0 2.6 5.2 0.00 0.00 0.00 62 1016.0
20260502104402 49 0 3.5 7.0 0.00 0.00 0.00 61 1016.1
20260502103901 49 0 4.3 7.8 0.00 0.00 0.00 61 1016.1
20260502103401 49 0 2.6 5.2 0.00 0.00 0.00 61 1016.1
20260502102902 49 0 1.7 2.6 0.00 0.00 0.00 60 1016.0
20260502102402 49 0 2.6 4.3 0.00 0.00 0.00 60 1016.0
20260502101902 49 0 2.6 4.3 0.00 0.00 0.00 61 1016.0
20260502101402 49 0 1.7 2.6 0.00 0.00 0.00 61 1015.9
20260502100902 49 0 1.7 2.6 0.00 0.00 0.00 62 1015.9
20260502100402 48 0 1.7 2.6 0.00 0.00 0.00 62 1015.9
20260502090402 48 0 1.7 4.3 0.00 0.00 0.00 66 1015.6
20260502071402 47 0 2.6 4.3 0.00 0.00 0.00 69 1015.6
20260502070903 47 0 2.6 4.3 0.00 0.00 0.00 69 1015.6
20260502070402 47 0 2.6 4.3 0.00 0.00 0.00 69 1015.6
20260502065903 47 0 2.6 5.2 0.00 0.00 0.00 70 1015.5
20260502064902 47 357 2.6 2.6 0.00 0.00 0.00 69 1015.6
20260502064403 47 0 1.7 2.6 0.00 0.00 0.00 69 1015.6
20260502063902 47 0 1.7 2.6 0.00 0.00 0.00 68 1015.6
20260502062903 48 0 1.7 2.6 0.00 0.00 0.00 66 1015.5
20260502062402 48 0 1.7 2.6 0.00 0.00 0.00 66 1015.5
20260502061903 49 0 2.6 4.3 0.00 0.00 0.00 65 1015.6
20260502061403 49 0 3.5 5.2 0.00 0.00 0.00 64 1015.5
20260502060902 49 0 2.6 5.2 0.00 0.00 0.00 64 1015.5
20260502060403 49 0 3.5 7.0 0.00 0.00 0.00 64 1015.5
20260502055903 50 0 1.7 2.6 0.00 0.00 0.00 63 1015.5
20260502055403 50 0 2.6 4.3 0.00 0.00 0.00 62 1015.4
20260502054902 50 0 2.6 4.3 0.00 0.00 0.00 62 1015.4
20260502054403 50 0 2.6 5.2 0.00 0.00 0.00 62 1015.4
20260502053903 50 0 2.6 5.2 0.00 0.00 0.00 62 1015.2
20260502053403 50 0 4.3 7.8 0.00 0.00 0.00 62 1015.2
20260502052903 50 0 3.5 7.0 0.00 0.00 0.00 62 1015.2
20260502052403 50 339 4.3 8.7 0.00 0.00 0.00 61 1015.1